Location: Mohawk View
(42.7837°N, 73.7885°W)
Time: 11:46:08
(UTC+00:00)

Cosmos 1328 Rocket - Pass Details

Date: 17 June 2021
Orbit: 602 x 626 km, 82.5° (Epoch: 30 July)

Event Time Altitude Azimuth Distance (km) Brightness Sun altitude
Rises 08:06:54 0° 352° (N) 2,875 7.6 -10.6°
Reaches altitude 10° 08:09:07 10° 352° (N) 1,970 6.7 -10.3°
Maximum altitude 08:13:29 87° 79° (E) 618 3.6 -9.7°
Drops below altitude 10° 08:17:51 10° 172° (S) 1,968 5.8 -9.2°
Sets 08:20:04 0° 173° (S) 2,872 6.6 -8.9°
